Weather in Kuzminka

Russia / Altai Krai     51°18′48″N   81°56′33″E
temp.,
°C
wind,
m/s
gust,
m/s
humid.,
%
clouds,
%
prec.,
mm/h
press.,
hPa
HPBL,
m
8 may, sat
sat801:00+10n117063 0.0 102010
04:00+9n2261100 0.0 102013
07:00+8nne346652 0.0 102156
10:00+14nne464465 0.0 1020698
13:00+18n56342 0.0 10201210
16:00+19n45315 0.0 10191323
19:00+18nne35360 0.0 10191161
22:00+13ene22500 0.0 101911
9 may, sun
sun901:00+11ene225010 0.0 101913
04:00+10ne2249100 0.0 101814
07:00+11nne3454100 0.0 101749
10:00+16ne474572 0.0 1016383
13:00+20ne553341 0.0 10141072
16:00+21ne553099 0.0 10131392
19:00+19ne5841100 0.0 1012618
22:00+14nne5125619 0.0 1013267
10 may, mon
mon1001:00+11ne8156399 0.0 1013404
04:00+8ne81462100 0.0 1013302
07:00+7nne71364100 0.0 1013286
10:00+10ne91260100 0.0 1012412
13:00+16ne8947100 0.0 1010766
16:00+18ne784274 0.0 1009967
19:00+16ne811465 0.0 1009789
22:00+11ne916440 0.0 1009587
11 may, tue
tue1101:00+9nne815493 0.0 1010510
04:00+7nne716600 0.0 1011449
07:00+5nne7156913 0.0 1013481
10:00+10nne8135053 0.0 1014787
13:00+14nne794024 0.0 10141469
16:00+16nne7935100 0.0 10131992
19:00+15n6840100 0.0 10142169
22:00+10n4125253 0.0 1016312
12 may, wed
wed1201:00+8n411625 0.0 1017324
04:00+5n38765 0.0 1018176
07:00+5n278074 0.0 1020236
10:00+10n57605 0.1 10211279
13:00+13nnw673797 0.1 10202441
16:00+15n463196 0.0 10182634
19:00+15n453291 0.0 10182417
22:00+10nne224787 0.0 101911